Location: Isle-of-Palms
(32.8045°N, 79.7399°W)
Time: 23:49:46
(UTC+00:00)

Hubble Space Telescope - Pass Details

Date: 12 August 2022
Orbit: 532 x 535 km, 28.5° (Epoch: 23 September)

Event Time Altitude Azimuth Distance (km) Brightness Sun altitude
Rises 01:16:28 0° 264° (W) 2,667 5.3 -14.0°
Reaches altitude 10° 01:18:48 10° 257° (WSW) 1,777 4.1 -14.4°
Maximum altitude 01:22:42 43° 186° (S) 757 1.3 -15.1°
Enters shadow 01:24:18 28° 135° (SE) 1,004 1.6 -15.4°
